Weather History for Tampa Macdill AFB, FL

Change the Weather History Date:

Thursday, October 3, 2013

  Actual Average Record
Temperature  
Mean Temperature 82 °F -  
Max Temperature 91 °F 84 °F 91 °F (2005)
Min Temperature 72 °F 70 °F 57 °F (2011)
Cooling Degree Days 16    
Growing Degree Days 32 (Base 50)    
Moisture  
Dew Point 73 °F    
Average Humidity 76    
Maximum Humidity 99    
Minimum Humidity 52    
Precipitation  
Precipitation 0.00 in - - ()
Sea Level Pressure  
Sea Level Pressure 30.03 in    
Wind  
Wind Speed 8 mph (ESE)    
Max Wind Speed 13 mph    
Max Gust Speed 20 mph    
Visibility 10 miles    
Events      
Averages and records for this station are not official NWS values.
T = Trace of Precipitation, MM = Missing Value Source: NWS Daily Summary

Daily Weather History Graph

Daily Weather History Graph

Search for Another Location

Airport:

Trip Planner

Search our weather history database for the weather conditions in past years. The results will help you decide how hot, cold, wet, or windy it might be!

Date:

Astronomy

Oct. 03, 2013 Rise Set
Actual Time 7:24 AM EDT 7:13 PM EDT
Civil Twilight 7:00 AM EDT 7:36 PM EDT
Nautical Twilight 6:33 AM EDT 8:04 PM EDT
Astronomical Twilight 6:06 AM EDT 8:31 PM EDT
Moon 6:00 AM EDT (10/3) 6:19 PM EDT (10/3)
Length of Visible Light 12h 36m
Length of Day
11h 49m
Waning Crescent, 2% of the Moon is Illuminated
Oct 3
Waning Crescent
Oct 4
New
Oct 11
First Quarter
Oct 18
Full
Oct 26
Last Quarter

Hourly Weather History & Observations

Time (EDT) Temp. Heat Index Dew Point Humidity Pressure Visibility Wind Dir Wind Speed Gust Speed Precip Events Conditions
12:58 AM 76.5 °F - 72.7 °F 88% 30.07 in 10.0 mi ESE 10.4 mph - N/A   Clear
1:58 AM 75.2 °F - 72.9 °F 92% 30.05 in 10.0 mi ESE 8.1 mph - N/A   Clear
2:58 AM 74.8 °F - 73.0 °F 94% 30.03 in 10.0 mi East 10.4 mph - N/A   Clear
3:58 AM 74.5 °F - 73.0 °F 95% 30.01 in 10.0 mi East 9.2 mph - N/A   Clear
4:58 AM 73.9 °F - 73.0 °F 97% 29.99 in 10.0 mi East 10.4 mph - N/A   Clear
5:58 AM 73.6 °F - 72.7 °F 97% 30.00 in 10.0 mi East 8.1 mph - N/A   Clear
6:58 AM 73.0 °F - 72.5 °F 98% 30.01 in 10.0 mi East 10.4 mph - N/A   Clear
7:58 AM 72.9 °F - 72.5 °F 99% 30.04 in 10.0 mi East 9.2 mph - N/A   Clear
8:58 AM 77.4 °F - 72.3 °F 84% 30.06 in 10.0 mi East 8.1 mph - N/A   Clear
10:07 AM 80.6 °F 85.4 °F 73.4 °F 79% 30.09 in 10.0 mi SE 10.4 mph - N/A   Partly Cloudy
10:59 AM 82.4 °F 88.2 °F 73.4 °F 74% 30.09 in 10.0 mi ESE 10.4 mph - N/A   Clear
11:00 AM 84.2 °F 90.9 °F 73.4 °F 70% 30.09 in 10.0 mi ESE 10.4 mph - N/A   Clear
11:55 AM 84.2 °F 89.6 °F 71.6 °F 66% 30.07 in 10.0 mi East 12.7 mph - N/A   Clear
12:58 PM 87.3 °F 93.2 °F 71.2 °F 59% 30.07 in 10.0 mi Variable 6.9 mph - N/A   Clear
1:58 PM 88.7 °F 94.3 °F 70.9 °F 55% 30.05 in 10.0 mi SE 8.1 mph 19.6 mph N/A   Clear
2:58 PM 90.0 °F 96.4 °F 71.4 °F 54% 30.03 in 10.0 mi Variable 4.6 mph - N/A   Clear
3:58 PM 91.0 °F 97.6 °F 71.4 °F 52% 30.01 in 10.0 mi SE 3.5 mph - N/A   Scattered Clouds
4:58 PM 90.3 °F 96.2 °F 70.5 °F 52% 30.00 in 10.0 mi SE 3.5 mph - N/A   Clear
5:01 PM 89.6 °F 94.7 °F 69.8 °F 52% 29.99 in 10.0 mi Variable 4.6 mph - N/A   Light Drizzle
5:10 PM 89.6 °F 94.7 °F 69.8 °F 52% 29.99 in 10.0 mi SE 5.8 mph - N/A   Clear
5:58 PM 87.3 °F 93.2 °F 71.2 °F 59% 30.01 in 10.0 mi SE 4.6 mph - 0.00 in   Clear
6:14 PM 86.0 °F 91.8 °F 71.6 °F 62% 30.00 in 10.0 mi SE 3.5 mph - N/A   Light Drizzle
6:21 PM 86.0 °F 91.8 °F 71.6 °F 62% 30.00 in 10.0 mi SE 3.5 mph - N/A   Clear
6:58 PM 84.6 °F 90.3 °F 72.0 °F 66% 30.02 in 10.0 mi ESE 4.6 mph - 0.00 in   Clear
7:58 PM 80.6 °F 84.6 °F 71.8 °F 74% 30.03 in 10.0 mi ENE 3.5 mph - N/A   Clear
8:58 PM 79.9 °F - 74.7 °F 84% 30.03 in 10.0 mi North 4.6 mph - N/A   Clear
9:58 PM 79.2 °F - 75.6 °F 89% 30.05 in 10.0 mi South 4.6 mph - N/A   Clear
10:05 PM 78.8 °F - 77.0 °F 94% 30.04 in 10.0 mi SE 2.3 mph - N/A   Light Drizzle
10:25 PM 78.8 °F - 75.2 °F 89% 30.05 in 10.0 mi SSE 3.5 mph - N/A   Clear
10:58 PM 78.3 °F - 76.8 °F 95% 30.06 in 10.0 mi SSE 4.6 mph - 0.00 in   Clear